Location: Tucson
(32.2217°N, 110.9265°W)
Time: 19:15:02
(UTC-07:00)

N. Korean satellite - Pass Details

Date: 30 September 2021
Orbit: 450 x 495 km, 97.3° (Epoch: 22 October)

Event Time Altitude Azimuth Distance (km) Brightness Sun altitude
Rises 05:12:45 0° 19° (NNE) 2,548 10.6 -14.5°
Reaches altitude 10° 05:14:54 10° 27° (NNE) 1,671 9.7 -14.0°
Maximum altitude 05:18:19 41° 99° (E) 717 8.0 -13.3°
Drops below altitude 10° 05:21:45 10° 171° (S) 1,677 9.4 -12.6°
Sets 05:23:54 0° 178° (S) 2,558 10.2 -12.1°
